Tracking 28790 objects as of 18-Apr-2024
HD Live streaming from Space Station
objects crossing your sky now

THORAD AGENA D DEB

Track THORAD AGENA D DEB now!
10-day predictions


NORAD ID: 42551
Int'l Code: 1970-025TH
Perigee: 896.9 km
Apogee: 923.7 km
Inclination: 100.0 °
Period: 103.1 minutes
Semi major axis: 7281 km
RCS: Unknown
Launch date: April 8, 1970
Source: United States (US)
Launch site: AIR FORCE WESTERN TEST RANGE (AFWTR)

Note: This is SATELLITE DEBRIS
Your satellite tracking list
Your tracking list is empty




NASA's NSSDC Master Catalog

Two Line Element Set (TLE):
1 42551U 70025TH  24103.42977303  .00001921  00000-0  14048-2 0  9998
2 42551  99.9976  93.4996 0018376  23.3438 336.8552 13.97305175528284
Source of the keplerian elements: AFSPC